This demonstration page uses our WeatherBlox Daily Observations layout. Learn more.

Left ArrowRight Arrow

39.51506, -84.39828

Hourly Observations for December 24, 2015

Temp ( °F °C ) Dew Point ( °F °C ) Humidity (%) Winds ( mph kmh ) Pressure ( in mb ) Visibility ( mi km ) Precip ( " mm )
12:15 am 00:15 Partly Cloudy 57 13.8 53 11.7 87 87 SSW 8 13 29.59 1002 10 16 N/A
12:35 am 00:35 Clear 57 13.8 53 11.8 88 88 SSW 8 13 29.59 1002 10 16 N/A
12:55 am 00:55 Clear 55 12.5 51 10.6 88 88 WSW 6 9 29.62 1003 10 16 N/A
1:15 am 01:15 Clear 55 12.6 52 10.9 89 89 SSW 7 11 29.62 1003 10 16 N/A
1:35 am 01:35 Clear 57 13.8 54 12 89 89 SSW 8 13 29.62 1003 10 16 N/A
1:55 am 01:55 Clear 55 12.7 51 10.8 88 88 SW 7 11 29.65 1004 10 16 N/A
2:15 am 02:15 Clear 55 12.7 52 11.1 90 90 SSW 8 13 29.65 1004 10 16 N/A
2:35 am 02:35 Clear 55 12.5 51 10.8 89 89 SW 8 13 29.68 1005 10 16 N/A
2:55 am 02:55 Clear 55 12.5 51 10.8 89 89 SW 8 13 29.68 1005 10 16 N/A
3:15 am 03:15 Clear 55 12.5 52 11 91 91 SW 8 13 29.71 1006 10 16 N/A
3:35 am 03:35 Partly Cloudy 55 12.5 51 10.7 89 89 SSW 7 11 29.71 1006 10 16 N/A
3:55 am 03:55 Partly Cloudy 55 12.5 51 10.7 89 89 SW 6 9 29.71 1006 10 16 N/A
4:15 am 04:15 Clear 55 12.5 51 10.8 89 89 SW 6 9 29.74 1007 10 16 N/A
4:35 am 04:35 Clear 55 12.5 51 10.8 89 89 WSW 9 15 29.74 1007 10 16 N/A
4:55 am 04:55 Partly Cloudy 57 13.8 52 11.2 84 84 W 12 19 29.80 1009 10 16 N/A
5:15 am 05:15 Partly Cloudy 55 12.5 48 9 79 79 WNW 13 20 29.83 1010 10 16 N/A
5:35 am 05:35 Mostly Cloudy 53 11.6 46 7.9 78 78 W 9 15 29.85 1011 10 16 N/A
5:55 am 05:55 Partly Cloudy 49 9.6 42 5.7 77 77 WNW 16 26 29.85 1011 10 16 N/A
6:15 am 06:15 Clear 49 9.6 43 5.9 78 78 WNW 10 17 29.88 1012 10 16 N/A
6:35 am 06:35 Clear 49 9.6 43 6 78 78 W 7 11 29.91 1013 10 16 N/A
6:55 am 06:55 Clear 47 8.2 40 4.6 78 78 WSW 5 7 29.94 1014 10 16 N/A
7:15 am 07:15 Clear 44 6.8 38 3.6 80 80 WSW 6 9 29.94 1014 10 16 N/A
7:35 am 07:35 Clear 44 6.8 38 3.5 80 80 W 7 11 29.97 1015 10 16 N/A
7:55 am 07:55 Clear 43 6.1 37 3 81 81 W 5 7 30.00 1016 10 16 N/A
8:15 am 08:15 Sunny 43 6.1 37 2.9 80 80 N N/A 30.00 1016 10 16 N/A
8:35 am 08:35 Sunny 43 6.1 38 3.5 84 84 N N/A 30.00 1016 10 16 N/A
8:55 am 08:55 Sunny 47 8.2 40 4.6 78 78 N N/A 30.03 1017 10 16 N/A
9:15 am 09:15 Sunny 47 8.1 40 4.7 79 79 N N/A 30.03 1017 10 16 N/A
9:35 am 09:35 Sunny 49 9.6 42 5.4 75 75 N N/A 30.06 1018 10 16 N/A
9:55 am 09:55 Sunny 49 9.6 41 5 73 73 N N/A 30.06 1018 10 16 N/A
10:15 am 10:15 Sunny 49 9.6 40 4.6 71 71 N N/A 30.06 1018 10 16 N/A
10:35 am 10:35 Sunny 49 9.6 40 4.7 72 72 N N/A 30.06 1018 10 16 N/A
10:55 am 10:55 Sunny 49 9.6 39 4.1 69 69 SSW 5 7 30.06 1018 10 16 N/A
11:15 am 11:15 Sunny 52 11 41 5 67 67 S 6 9 30.06 1018 10 16 N/A
11:35 am 11:35 Sunny 53 11.8 42 5.5 66 66 S 7 11 30.09 1019 10 16 N/A
11:55 am 11:55 Sunny 55 12.5 42 5.6 63 63 S 5 7 30.06 1018 10 16 N/A
12:15 pm 12:15 Sunny 55 12.5 43 5.9 64 64 WSW 6 9 30.06 1018 10 16 N/A
12:35 pm 12:35 Sunny 55 12.5 40 4.6 59 59 WSW 5 7 30.06 1018 10 16 N/A
12:55 pm 12:55 Sunny 55 12.5 38 3.1 53 53 W 5 7 30.06 1018 10 16 N/A
1:15 pm 13:15 Sunny 56 13.3 37 2.7 49 49 N N/A 30.06 1018 10 16 N/A
1:35 pm 13:35 Sunny 57 13.8 35 1.8 44 44 N N/A 30.06 1018 10 16 N/A
1:55 pm 13:55 Sunny 57 13.8 34 1.1 42 42 N N/A 30.03 1017 10 16 N/A
2:15 pm 14:15 Sunny 57 13.8 34 1.1 42 42 N N/A 30.06 1018 10 16 N/A
2:35 pm 14:35 Sunny 57 13.8 34 1.3 43 43 W 3 6 30.06 1018 10 16 N/A
2:55 pm 14:55 Sunny 57 13.8 34 0.9 42 42 WNW 3 6 30.06 1018 10 16 N/A
3:15 pm 15:15 Sunny 57 13.8 34 0.9 42 42 N 5 7 30.06 1018 10 16 N/A
3:35 pm 15:35 Sunny 57 13.8 33 0.6 41 41 N N/A 30.06 1018 10 16 N/A
3:55 pm 15:55 Sunny 57 13.8 35 1.5 43 43 NE 3 6 30.06 1018 10 16 N/A
4:15 pm 16:15 Sunny 57 13.8 34 1 42 42 N N/A 30.06 1018 10 16 N/A
4:35 pm 16:35 Sunny 57 13.8 36 2 45 45 NE 3 6 30.06 1018 10 16 N/A
4:55 pm 16:55 Sunny 55 12.5 36 2.3 50 50 NE 3 6 30.06 1018 10 16 N/A
5:15 pm 17:15 Sunny 55 12.5 37 2.6 51 51 ENE 3 6 30.06 1018 10 16 N/A
5:35 pm 17:35 Clear 50 9.8 39 4 67 67 N N/A 30.06 1018 10 16 N/A
5:55 pm 17:55 Clear 49 9.6 43 6.1 79 79 N N/A 30.06 1018 10 16 N/A
6:15 pm 18:15 Clear 47 8.2 42 5.3 82 82 N 3 6 30.06 1018 10 16 N/A
6:35 pm 18:35 Clear 45 7.4 40 4.2 80 80 N N/A 30.06 1018 10 16 N/A
6:55 pm 18:55 Clear 44 6.8 38 3.3 79 79 N N/A 30.06 1018 10 16 N/A
7:15 pm 19:15 Clear 43 6 38 3.6 85 85 N 5 7 30.06 1018 10 16 N/A
7:35 pm 19:35 Clear 43 5.9 38 3.6 85 85 N N/A 30.06 1018 10 16 N/A
7:55 pm 19:55 Clear 43 6.2 39 3.7 84 84 N N/A 30.06 1018 10 16 N/A
8:15 pm 20:15 Clear 42 5.8 38 3.6 86 86 N N/A 30.06 1018 10 16 N/A
8:35 pm 20:35 Clear 42 5.5 38 3.5 87 87 N N/A 30.06 1018 10 16 N/A
8:55 pm 20:55 Partly Cloudy 41 5 38 3.1 88 88 NW 3 6 30.06 1018 10 16 N/A
9:15 pm 21:15 Mostly Cloudy 42 5.8 39 4 88 88 N N/A 30.06 1018 10 16 N/A
9:35 pm 21:35 Cloudy 44 6.4 40 4.4 87 87 N N/A 30.06 1018 10 16 N/A
9:55 pm 21:55 Mostly Cloudy 44 6.8 40 4.6 86 86 N N/A 30.06 1018 10 16 N/A
10:15 pm 22:15 Partly Cloudy 47 8.2 43 6 86 86 N N/A 30.09 1019 10 16 N/A
10:35 pm 22:35 Partly Cloudy 47 8.2 42 5.8 85 85 N N/A 30.09 1019 10 16 N/A
10:55 pm 22:55 Mostly Cloudy 47 8.2 43 6 86 86 N N/A 30.06 1018 10 16 N/A
11:15 pm 23:15 Partly Cloudy 49 9.6 45 7.1 85 85 N N/A 30.06 1018 10 16 N/A
11:35 pm 23:35 Partly Cloudy 49 9.6 46 7.5 87 87 N N/A 30.06 1018 10 16 N/A
11:55 pm 23:55 Mostly Cloudy 49 9.6 46 7.5 87 87 N N/A 30.06 1018 10 16 N/A

Powered by AerisWeather